Location: São Paulo
(23.5507°S, 46.6334°W)
Time: 07:53:47
(UTC-03:00)

Transit 4A - Pass Details

Date: 18 February 2026
Orbit: 864 x 977 km, 66.8° (Epoch: 11 March)

Event Time Altitude Azimuth Distance (km) Brightness Sun altitude
Rises 02:16:59 0° 217° (SW) 3,490 - -44.7°
Reaches altitude 10° 02:19:44 10° 226° (SW) 2,534 - -44.3°
Maximum altitude 02:24:50 32° 287° (WNW) 1,450 - -43.5°
Drops below altitude 10° 02:29:52 10° 349° (NNW) 2,494 - -42.7°
Sets 02:32:34 0° 358° (N) 3,427 - -42.2°
